Location: Buckenweiler
(49.0667°N, 10.2500°E)
Time: 20:19:37
(UTC+00:00)

Cosmos 1743 Rocket - Pass Details

Date: 18 January 2026
Orbit: 597 x 626 km, 82.6° (Epoch: 14 February)

Event Time Altitude Azimuth Distance (km) Brightness Sun altitude
Rises 04:47:08 0° 184° (S) 2,897 7.0 -22.2°
Reaches altitude 10° 04:49:21 10° 183° (S) 1,993 6.2 -21.8°
Maximum altitude 04:53:47 79° 98° (E) 640 3.6 -21.1°
Drops below altitude 10° 04:58:12 10° 12° (NNE) 1,996 6.2 -20.4°
Sets 05:00:26 0° 11° (NNE) 2,902 7.0 -20.0°
